Kezdőlap
METAR-TAF:

METAR-TAF

Repülőterek :

Fillmore County Airport

Preston, Minnesota, Amerikai Egyesült Államok

földrajzi szélesség: 43-40-36N, földrajzi hosszúság: 092-10-47W, magasság: 389 m

Jelenlegi meteorológiai megfigyelések

A jelentés 34 perccel ezelõtt készült, 19:35 UTC
Észak-északkeleti szél 7 kt, észak-északnyugati és északkeleti között változik
Hőmérséklet 18°C
Páratartalom 39%
Légköri nyomás 1024 hPa
Látótávolság: 16.1 km
Derült ég

METAR: KFKA 221935Z AUTO 02007KT 340V040 10SM CLR 18/04 A3025 RMK AO2 T01800042

Idő: 15:09 (20:09 UTC)


TAF: hiányzik

Meteorológiai megfigyelések és előrejelzések több, mint 4000 repülőtéren (METAR és TAF jelentéseket).

A térképen piros és sárga pontok jelzik az elérhető meteorológiai állomásokat.

Mozgassa az egeret a pont fölött, hogy megjelenjen az állomás neve.

Azután kattintson az időjárási megfigyelések és előrejelzések megtekintéséhez.

A térkép megváltoztatása: kattintson a fekete keresztel jelölt zöld gombra ráközelítéshez, a vonallal jelölt zöld gombra távolításhoz, vagy a zöld nyilakra a szomszédos térképek eléréséhez.


METAR-TAF: